Date,TemperatureHighF,TemperatureAvgF,TemperatureLowF,DewpointHighF,DewpointAvgF,DewpointLowF,HumidityHigh,HumidityAvg,HumidityLow,PressureMaxIn,PressureMinIn,WindSpeedMaxMPH,WindSpeedAvgMPH,GustSpeedMaxMPH,PrecipitationSumIn
2013-1-1,26,19,9,20,12,6,89,73,56,30.21,30.08,13,2,13,0.00
2013-1-2,24,20,15,19,15,10,86,80,74,30.27,30.14,9,2,12,0.00
2013-1-3,27,22,16,25,18,8,90,82,71,30.24,30.10,10,2,11,0.00
2013-1-4,31,27,23,23,21,19,85,78,67,30.24,30.04,16,5,19,0.00
2013-1-5,33,25,14,29,21,12,95,87,74,30.34,30.06,11,1,11,0.00
2013-1-6,34,32,30,32,29,26,95,89,79,30.33,29.96,10,2,10,0.01
2013-1-7,35,30,27,26,24,22,86,79,68,30.43,30.20,16,2,17,0.00
2013-1-8,34,27,21,27,23,19,92,85,75,30.32,30.21,8,1,8,0.00
2013-1-9,45,36,27,34,28,24,93,75,49,30.48,30.09,22,4,22,0.12
2013-1-10,40,30,21,32,26,19,95,86,64,30.65,30.26,10,0,10,0.08
2013-1-11,53,43,34,51,41,32,98,94,83,30.26,29.82,11,1,13,0.76
2013-1-12,59,49,44,50,46,43,97,89,68,29.95,29.84,12,1,13,0.00
2013-1-13,46,36,28,43,35,25,96,95,76,30.07,29.75,12,1,13,0.70
2013-1-14,28,22,15,25,17,13,91,82,74,30.50,30.07,17,3,17,0.00
2013-1-15,29,21,12,19,16,10,94,80,58,30.53,30.22,7,0,7,0.00
2013-1-16,37,28,18,28,19,14,94,72,40,30.22,29.86,16,3,18,0.00
2013-1-17,32,27,15,28,19,4,88,73,54,30.37,30.01,20,3,20,0.00
2013-1-18,33,22,12,23,15,6,90,73,54,30.51,30.03,18,2,22,0.00
2013-1-19,44,39,33,35,30,23,75,68,61,30.03,29.58,18,4,18,0.00
2013-1-20,43,20,13,35,9,3,74,62,42,30.24,29.57,27,6,32,0.00
2013-1-21,15,11,2,11,4,-4,87,74,57,30.23,30.03,14,2,16,0.00
2013-1-22,6,2,-4,1,-6,-13,82,70,57,30.39,30.19,13,3,15,0.00
2013-1-23,16,8,-2,10,3,-6,87,81,66,30.40,30.18,10,1,10,0.00
2013-1-24,17,11,6,9,4,0,88,74,49,30.68,30.22,10,2,13,0.00
2013-1-25,21,16,10,16,11,3,91,82,72,30.61,30.11,7,0,7,0.00
2013-1-26,25,19,11,17,14,8,91,82,61,30.54,30.14,10,1,10,0.00
2013-1-27,28,19,6,26,14,3,95,83,64,30.57,30.22,9,1,10,0.00
2013-1-28,44,35,28,43,33,26,98,94,92,30.25,29.92,10,2,10,0.40
2013-1-29,55,44,32,54,43,30,99,97,93,30.09,29.51,11,1,16,1.10
2013-1-30,58,48,32,57,47,29,99,96,88,29.51,29.11,21,3,21,0.23
2013-1-31,32,21,15,29,14,9,89,77,59,29.94,29.22,29,6,29,0.23